Regional Weather Roundup
Issued by NWS

Home | Current Version | Previous Version | Graphics & Text | Print | Product List | Glossary On
Versions: 1 2 3 4 5 6 7 8 9 10 11 12 13 14 15 16 17 18 19 20 21 22 23 24 25 26 27 28 29 30 31 32 33 34 35 36 37 38 39 40 41 42 43 44 45 46 47 48 49 50
000
ASUS43 KFSD 021810
RWRSD

WEATHER ROUNDUP FOR SOUTH DAKOTA
NATIONAL WEATHER SERVICE SIOUX FALLS SD
100 PM CDT WED SEP 02 2015

NOTE: "FAIR" INDICATES FEW OR NO CLOUDS BELOW 12,000 FEET WITH NO
SIGNIFICANT WEATHER AND/OR OBSTRUCTIONS TO VISIBILITY.


SDZ001>005-009-010-012>017-021900-
NORTHWEST AND NORTH CENTRAL SOUTH DAKOTA

CITY           SKY/WX    TMP DP  RH WIND       PRES   REMARKS
BUFFALO          N/A     91  45  20 S13       29.76S
FAITH            N/A     85  57  38 SE12      29.81S
MOBRIDGE       SUNNY     82  72  71 VRB5      29.76S
$$

SDZ012>016-024>037-041>051-057-063-072>074-021900-
SOUTHWEST AND SOUTH CENTRAL SOUTH DAKOTA

CITY           SKY/WX    TMP DP  RH WIND       PRES   REMARKS
RAPID CTY ARPT SUNNY     88  53  30 SE8       29.84F
PIERRE         PTSUNNY   80  67  64 CALM      29.77S
CUSTER         SUNNY     83  41  22 VRB6G17   30.03S
ELLSWORTH AFB  SUNNY     89  52  28 SW6       29.83F
PHILIP         MOSUNNY   88  57  34 VRB3      29.78F
PINE RIDGE     PTSUNNY   91  49  23 SW8       29.89F
WINNER         FAIR      92  59  33 S9        29.80F
$$

SDZ004>011-016>023-039-040-021900-
NORTHEAST SOUTH DAKOTA

CITY           SKY/WX    TMP DP  RH WIND       PRES   REMARKS
ABERDEEN       MOSUNNY   84  70  62 SE6       29.78F
WATERTOWN      FAIR      85  71  63 SE7       29.83S
BROOKINGS      FAIR      82  72  69 SE10      29.85F
SISSETON         N/A     84  69  60 SE14      29.81S
$$

SDZ017-020-022-023-036>040-048>070-021900-
SOUTHEAST SOUTH DAKOTA

CITY           SKY/WX    TMP DP  RH WIND       PRES   REMARKS
SIOUX FALLS    FAIR      83  73  72 S12       29.84F
HURON          MOSUNNY   84  71  65 SE8       29.77F
CHAMBERLAIN    PTSUNNY   83  71  66 SE5       29.78F
MITCHELL       PTSUNNY   84  71  65 S9        29.79F
YANKTON        FAIR      84  72  65 SE16      29.81S
$$

ABBREVIATIONS USED IN REMARKS
   TC - TEMPERATURE IN CELSIUS
  WCI - WIND CHILL INDEX
   HX - HEAT INDEX
  VSB - VISIBILITY




USA.gov is the U.S. government's official web portal to all federal, state and local government web resources and services.